Regional Weather Roundup
Issued by NWS Upton, NY

Current Version | Previous Version | Graphics & Text | Print | Product List | Glossary Off
Versions: 1 2 3 4 5 6 7 8 9 10 11 12 13 14 15 16 17 18 19 20 21 22 23 24 25 26 27 28 29 30 31 32 33 34 35 36 37 38 39 40 41 42 43 44 45 46 47 48

000
ASUS41 KOKX 211505
RWROKX

REGIONAL WEATHER ROUNDUP
NATIONAL WEATHER SERVICE NEW YORK NY
1000 AM EST SUN DEC 21 2014

NOTE: "FAIR" INDICATES FEW OR NO CLOUDS BELOW 12,000 FEET WITH NO
SIGNIFICANT WEATHER AND/OR OBSTRUCTIONS TO VISIBILITY.

NYZ071-072-176-178-NJZ106-104-211600-
NEW YORK CITY METRO AREA


CITY           SKY/WX    TMP DP  RH WIND       PRES   REMARKS
CENTRAL PARK   CLOUDY    32  25  75 VRB5      30.34R WCI  27
LAGUARDIA APRT CLOUDY    33  27  78 N6        30.32R WCI  28
KENNEDY INTL   CLOUDY    35  25  66 NW6       30.33R WCI  30
NEWARK/LIBERTY CLOUDY    33  26  75 NW7       30.33R WCI  27
BRNX BOT. GARD   N/A    N/A N/A N/A N3        30.34R
TETERBORO      CLOUDY    33  24  69 NW6       30.32R WCI  28
$$

NYZ177-179-078>081-211600-
LONG ISLAND NEW YORK

CITY           SKY/WX    TMP DP  RH WIND       PRES   REMARKS
FARMINGDALE    CLOUDY    34  27  75 NW3       30.31R
ISLIP          CLOUDY    34  28  79 W7        30.28S WCI  28
SHIRLEY        CLOUDY    37  33  85 N5        30.29S WCI  33
WESTHAMPTON    CLOUDY    37  34  89 N6        30.29F WCI  32
MONTAUK POINT    N/A     40  37  89 NE10      30.27S WCI  33
$$

NYZ052-065-067-211600-
HUDSON VALLEY

CITY           SKY/WX    TMP DP  RH WIND       PRES   REMARKS
WHITE PLAINS   LGT SNOW  31  25  78 NW6       30.29R WCI  25
NEWBURGH       CLOUDY    28  27  93 VRB5      30.33R WCI  23
MONTGOMERY     CLOUDY    30  26  85 N6        30.32R WCI  24
POUGHKEEPSIE   CLOUDY    31  25  78 N6        30.33R WCI  25
ALBANY         LGT SNOW  28  23  81 NW6       30.36R FOG     WCI  22
$$

NJZ001-105-106-008-010-013-015-019>022-104-211600-
NEW JERSEY

CITY           SKY/WX    TMP DP  RH WIND       PRES   REMARKS
NEWARK/LIBERTY CLOUDY    33  26  75 NW7       30.33R WCI  27
TETERBORO      CLOUDY    33  24  69 NW6       30.32R WCI  28
CALDWELL       CLOUDY    31  25  78 N5        30.33R WCI  26
MORRISTOWN     CLOUDY    32  27  80 N5        30.33R WCI  27
SOMERVILLE     CLOUDY    34  24  67 NW7       30.32R WCI  28
SUSSEX         CLOUDY    30  27  88 CALM      30.32R
ANDOVER          N/A     30  26  85 VRB3      30.31R
TRENTON        CLOUDY    35  22  58 N8        30.32S WCI  29
MILLVILLE      CLOUDY    34  24  67 NW3       30.34R
ATLANTIC CITY  CLOUDY    33  24  69 NW3       30.34R
WRIGHTSTOWN    MOSUNNY   35  24  62 NW8       30.31R WCI  29
TOMS RIVER     MOSUNNY   36  25  64 N13       30.33R WCI  27
BELMAR         CLOUDY    34  19  55 W6        30.31S WCI  29
$$

PAZ047>061-062-071-211600-
EASTERN PENNSYLVANIA

CITY           SKY/WX    TMP DP  RH WIND       PRES   REMARKS
PHILADELPHIA   MOSUNNY   36  20  52 NW6       30.36R WCI  31
ALLENTOWN      CLOUDY    33  20  58 N10       30.33R WCI  25
SCRANTON       CLOUDY    30  20  66 NW5       30.31R WCI  25
$$

CTZ002-004>006-009-010-012-RIZ004-006-007-MAZ004-011-015-211600-
SOUTHERN NEW ENGLAND
 IN CT

CITY           SKY/WX    TMP DP  RH WIND       PRES   REMARKS
BRADLEY INTL   LGT SNOW  32  29  88 N8        30.31R FOG     WCI  25
HARTFORD       LGT SNOW  32  30  92 VRB5      30.32R FOG     WCI  27
DANBURY        LGT SNOW  32  27  81 N3        30.30S
WTRBRY/OXFORD  LGT SNOW  30  25  80 NE5       30.28R FOG     WCI  25
BRIDGEPORT     CLOUDY    35  31  85 N9        30.30S WCI  28
MERIDEN        LGT SNOW  32  29  88 N7        30.31S FOG     WCI  26
NEW HAVEN      LGT SNOW  36  30  79 N9        30.30S WCI  29
CHESTER        LGT SNOW  32  32 100 N6        30.29R WCI  26
GROTON         CLOUDY    35  34  96 N8        30.29R WCI  29
WILLIMANTIC    LGT SNOW  33  30  88 N6        30.31R FOG     WCI  28

 IN RI

CITY           SKY/WX    TMP DP  RH WIND       PRES   REMARKS
PROVIDENCE     CLOUDY    33  31  92 N12       30.32R WCI  24
BLOCK ISLAND   CLOUDY    39  34  81 NE13G20   30.26S WCI  32
WESTERLY       CLOUDY    37  33  85 N9        30.29S WCI  30

 IN MA

CITY           SKY/WX    TMP DP  RH WIND       PRES   REMARKS
BOSTON         CLOUDY    30  25  81 N9        30.34R WCI  22
WORCESTER      CLOUDY    27  25  92 NE8       30.28R WCI  19
WESTFIELD      LGT SNOW  32  28  85 N8        30.32R FOG     WCI  25
PROVINCETOWN   CLOUDY    39  36  87 SE6       30.31R WCI  35
NANTUCKET      CLOUDY    43  34  70 E9        30.27R
$$

ANZ330-335-338-340-345-350-353-355-211600-
COASTAL MARINE OBSERVATIONS


STATION/POSITION TIME  SKY/WX   TEMP    WIND        PRES    VSBY  WAVE
                                AIR SEA DIR/SP/G                  HT/PER
                 (UTC)          (F)     (DEG/KT/KT) (MB)    (MI)  (FT/S)
NY HARB ENTRANCE 1500            35 47  310/  6/  8 1026.9          1/11
4S FIRE IS       1500               45                N/A           1/11
20S FIRE ISLAND  1400            37 49              1026.3          2/10
23SW MTP         1500                                 N/A           4/ 5
HUDSON CANYON    1500            41 55  280/  8/ 12 1025.4          2/ 5
EXECUTION ROCKS  1500            33 41  320/  6/ 10   N/A
WESTERN LI SOUND 1500            33     350/  6/  8   N/A           0
CENTRAL LI SOUND 1400            33 44  360/  8/ 10   N/A           1
EASTERN LI SOUND NOT AVBL
ROBBINS REEF     1500            32     120/  3/  3 1025.7
$$


>>>>>>>>>>>>>>>>>>>>>>>>>>>> KEY <<<<<<<<<<<<<<<<<<<<<<<<<<<
>                                                          <
>     SKY/WX - SKY CONDITION/PRESENT WEATHER               <
>     TMP    - TEMPERATURE IN FAHRENHEIT                   <
>     DP     - DEWPOINT IN FAHRENHEIT                      <
>     RH     - RELATIVE HUMIDITY IN PERCENT                <
>     WIND   - DIRECTION AND SPEED IN MPH                  <
>     PRES   - MEAN SEA LEVEL PRESSURE IN INCHES OF HG     <
>     WCI    - WIND CHILL INDEX                            <
>     VSB    - VISIBILITY IN MILES                         <
>     HX     - HEAT INDEX                                  <
>     TC     - TEMPERATURE IN CELSIUS                      <
>     VRB    - VARIABLE WIND DIRECTION                     <
>                                                          <
>>>>>>>>>>>>>>>>>>>>>>>>>>>> KEY <<<<<<<<<<<<<<<<<<<<<<<<<<<




USA.gov is the U.S. government's official web portal to all federal, state and local government web resources and services.